[[{"header":{"parameterUnit":"m.s-1","parameterCategory":2,"la1":30.2991,"la2":30.254,"lo1":-89.0895,"lo2":-89.0444,"dy":0.0017,"dx":0.0017,"nx":28,"ny":28,"refTime":"2025-04-09T21:00:00:Z","depth":"0","parameterNumber":2,"parameterNumberName":"U-component_of_CURRENTS"},"data":[0,0,0,0,0,0,0,0,0,0,0,0,0,0,0,0,0,0,0,0,0,0,0,0,0,0,0,0,0,0,0,0,0,0,0,0,0,0,0,0,0,0,0,0,0,0,0,0,0,0,0,0,0,0,0,0,0,0,0.0777,0.0778,0,0.079,0.079,0.079,0.0813,0.0814,0.0814,0.0815,0.0798,0.0797,0.0796,0,0,0,0,0,0,0,0,0,0,0,0,0,0.0781,0.0781,0.0777,0.0778,0.0778,0.079,0.079,0.079,0.0813,0.0814,0.0814,0.0815,0.0799,0.0797,0.0796,0,0,0,0,0,0,0,0,0,0,0,0,0,0.0784,0.0781,0.0777,0.0792,0.0793,0.079,0.079,0.079,0.0813,0.0814,0.0815,0.0815,0.0799,0.0797,0.0796,0.077,0,0,0.0792,0.0791,0,0,0,0,0,0,0,0,0.0783,0.0783,0.079,0.0791,0.0793,0.0802,0.0785,0.0782,0.0813,0.0804,0.0815,0.0816,0.0797,0.0796,0.0795,0.0769,0.0768,0.0791,0.0791,0.079,0.0789,0,0,0,0,0,0,0,0.0783,0.0783,0.0781,0.079,0.0792,0.08,0.0802,0.0785,0.0794,0.0805,0.0807,0.081,0.0798,0.0796,0.0794,0.0768,0.0791,0.079,0.0789,0.0789,0.0742,0.0742,0,0,0,0,0,0,0.0783,0.0783,0.0781,0.0781,0.0792,0.08,0.0801,0.0797,0.0795,0.0796,0.0809,0.0811,0.0798,0.0796,0.0794,0.0763,0.079,0.0789,0.0788,0.0743,0.0742,0.0742,0,0,0,0,0,0,0.0783,0.0782,0.078,0.0784,0.0785,0.0799,0.0794,0.0797,0.0791,0.0799,0.0799,0.0801,0.0799,0.0796,0.0772,0.0763,0.0788,0.0786,0.0743,0.0743,0.0742,0.0701,0,0,0,0,0,0,0.0783,0.0782,0.0784,0.0784,0.0784,0.076,0.0794,0.0796,0.0792,0.0795,0.0791,0.0791,0.0799,0.0775,0.0771,0.0761,0.0785,0.0743,0.0743,0.0742,0.0703,0.0699,0.0696,0,0,0,0,0,0.0783,0.0769,0.0783,0.0784,0.0784,0.0758,0.0758,0.0772,0.0791,0.0772,0.078,0.0791,0.0769,0.0772,0.0768,0.0758,0.0744,0.0743,0.0742,0.0704,0.07,0.0696,0,0,0,0,0,0,0.078,0.077,0.0786,0.0775,0.0764,0.0762,0.0758,0.0762,0.0755,0.0768,0.0774,0.0772,0.075,0.0758,0.0762,0.0745,0.0763,0.0761,0.0735,0.0731,0.0728,0.0746,0.0784,0,0,0,0,0,0.078,0.0761,0.0759,0.075,0.0747,0.0752,0.0748,0.0754,0.0748,0.0747,0.0745,0.0751,0.0743,0.074,0.0733,0.0714,0.0721,0.071,0.0707,0.0704,0.0717,0.0703,0.0699,0.0739,0.0739,0.0739,0,0,0.078,0.0771,0.0765,0.0747,0.0749,0.0743,0.075,0.0739,0.0733,0.0745,0.0733,0.0729,0.0734,0.0718,0.071,0.0723,0.0695,0.0703,0.07,0.0716,0.0702,0.0698,0.0695,0.0739,0.0739,0.0739,0,0,0.077,0.0761,0.0751,0.0737,0.0733,0.073,0.0722,0.0715,0.071,0.0692,0.0706,0.0695,0.0682,0.0686,0.0688,0.066,0.0671,0.066,0.066,0.0645,0.0642,0.0639,0.0634,0.0631,0.0665,0.0664,0.0664,0,0.0769,0.076,0.0743,0.0735,0.0723,0.0723,0.0712,0.0705,0.069,0.0685,0.0686,0.0677,0.0672,0.0664,0.0661,0.0652,0.065,0.0671,0.064,0.0637,0.0635,0.0631,0.0628,0.0662,0.0663,0.0663,0.0663,0,0.0765,0.0754,0.0742,0.0733,0.0715,0.0694,0.0686,0.0672,0.0669,0.0672,0.0651,0.0642,0.0643,0.0635,0.064,0.0625,0.063,0.0629,0.0648,0.0629,0.0625,0.0623,0.0659,0.066,0.0661,0.0661,0,0,0.0749,0.0739,0.0733,0.0737,0.0704,0.0695,0.0673,0.0654,0.0664,0.0642,0.0633,0.062,0.0625,0.0628,0.0624,0.0617,0.0589,0.062,0.062,0.0612,0.0562,0.0702,0.0713,0.0578,0.0577,0.0577,0.0562,0,0.0744,0.0732,0.0718,0.0707,0.07,0.0679,0.0665,0.0656,0.0644,0.0636,0.0623,0.062,0.0619,0.0619,0.0605,0.0584,0.0584,0.0595,0.0586,0.0587,0.0711,0.0716,0.0842,0.0852,0.056,0.056,0.056,0,0.0737,0.0729,0.0712,0.0704,0.07,0.0695,0.0674,0.0669,0.0658,0.0648,0.0637,0.0627,0.0602,0.0608,0.0573,0.0577,0.0577,0.0569,0.0568,0.0719,0.0724,0.0828,0.086,0.08,0.0557,0.0557,0.0557,0,0.0736,0.0719,0.0703,0.0695,0.069,0.0682,0.0686,0.0678,0.0691,0.0664,0.0679,0.0627,0.0628,0.0587,0.0586,0.0564,0.0567,0.0526,0.0658,0.0666,0.0788,0.0811,0.0768,0.0527,0.0527,0.0527,0.0527,0,0.0721,0.0719,0.0711,0.0711,0.0714,0.0706,0.0718,0.0716,0.0723,0.0765,0.0705,0.0744,0.0629,0.0623,0.0586,0.064,0.0567,0.0675,0.0681,0.0779,0.08,0.0768,0.0731,0.0526,0.0527,0.0527,0.0527,0,0.0736,0.0719,0.0723,0.0718,0.0717,0.0734,0.0761,0.0791,0.0792,0.0837,0.0833,0.082,0.0841,0.0765,0.0714,0.069,0.0691,0.0736,0.0872,0.0897,0.0961,0.092,0.0858,0.0831,0.0841,0.0845,0.0848,0,0.0756,0.0747,0.0743,0.0756,0.0759,0.078,0.0806,0.0818,0.0857,0.0926,0.0963,0.0995,0.1075,0.1058,0.102,0.0988,0.088,0.1055,0.1049,0.1009,0.0962,0.0838,0.0807,0.1169,0.1174,0.1178,0.1182,0,0.0795,0.0779,0.0786,0.0805,0.0828,0.086,0.0903,0.0941,0.0983,0.1039,0.1155,0.1232,0.131,0.137,0.135,0.1325,0.1037,0.115,0.1055,0.1198,0.1109,0.1074,0.1121,0.1221,0.1217,0.1214,0.1212,0.121,0.0825,0.0839,0.0835,0.0859,0.0892,0.0944,0.0983,0.1044,0.1126,0.1233,0.1319,0.1458,0.1592,0.1634,0.157,0.1507,0.1384,0.1452,0.1396,0.1261,0.1279,0.1442,0.1591,0.1589,0.1588,0.1586,0.1585,0,0.0845,0.0856,0.0895,0.0918,0.0972,0.0978,0.105,0.1094,0.1199,0.1335,0.1464,0.1678,0.1819,0.1805,0.1807,0.1729,0.1568,0.164,0.1457,0.1405,0.1525,0.1588,0.1808,0.1808,0.1808,0.1809,0.1809,0.1809,0.0841,0.0875,0.0898,0.0978,0.1014,0.1076,0.1123,0.1187,0.1271,0.1432,0.1549,0.1681,0.179,0.1888,0.1824,0.177,0.1538,0.157,0.1394,0.1467,0.1442,0.1417,0.1464,0.1655,0.1654,0.1273,0.1271,0.1269]},{"header":{"parameterUnit":"m.s-1","parameterCategory":2,"la1":30.2991,"la2":30.254,"lo1":-89.0895,"lo2":-89.0444,"dy":0.0017,"dx":0.0017,"nx":28,"ny":28,"refTime":"2025-04-09T21:00:00:Z","depth":"0","parameterNumber":3,"parameterNumberName":"V-component_of_CURRENTS"},"data":[0,0,0,0,0,0,0,0,0,0,0,0,0,0,0,0,0,0,0,0,0,0,0,0,0,0,0,0,0,0,0,0,0,0,0,0,0,0,0,0,0,0,0,0,0,0,0,0,0,0,0,0,0,0,0,0,0,0,0.0007,0.0007,0,-0.0004,-0.0004,-0.0005,0.0002,0.0002,0.0003,0.0003,0.0033,0.0034,0.0034,0,0,0,0,0,0,0,0,0,0,0,0,0,-0.0013,-0.0013,0.0007,0.0007,0.0007,-0.0004,-0.0004,-0.0005,0.0002,0.0002,0.0003,0.0003,0.0033,0.0034,0.0034,0,0,0,0,0,0,0,0,0,0,0,0,0,-0.0013,-0.0013,0.0007,0.0009,0.001,-0.0004,-0.0004,-0.0005,0.0002,0.0002,0.0003,0.0003,0.0033,0.0034,0.0034,0.0027,0,0,0.0036,0.0037,0,0,0,0,0,0,0,0,-0.0013,-0.0013,0.0009,0.0009,0.0009,0.0002,-0.0,0.0008,0.0002,0.0004,0.0003,0.0004,0.0027,0.0028,0.0023,0.0028,0.003,0.0037,0.0037,0.0037,0.0037,0,0,0,0,0,0,0,-0.0013,-0.0012,0.0002,0.0009,0.0009,-0.0005,-0.0004,0.0001,0.0012,0.0004,0.0004,0.0004,0.0027,0.0022,0.0024,0.003,0.0037,0.0037,0.0038,0.0038,0.0058,0.0058,0,0,0,0,0,0,-0.0008,-0.0012,0.0002,0.0002,0.0,-0.0005,-0.0004,0.0003,0.0011,0.0013,0.0004,0.0005,0.0021,0.0023,0.0025,0.0038,0.0037,0.0038,0.0038,0.0058,0.0058,0.0058,0,0,0,0,0,0,-0.0008,-0.0007,0.0003,-0.0005,-0.0005,-0.0005,0.0002,0.0002,0.0009,0.0011,0.0014,0.0012,0.0021,0.0024,0.0038,0.0038,0.0038,0.0039,0.0058,0.0058,0.0058,0.005,0,0,0,0,0,0,-0.0009,-0.0006,-0.0003,-0.0005,-0.0004,0.0,0.0002,0.0002,0.0007,0.0009,0.0018,0.0021,0.0022,0.0037,0.0039,0.0039,0.0039,0.0057,0.0058,0.0058,0.005,0.005,0.005,0,0,0,0,0,-0.001,-0.0012,-0.0002,-0.0001,0.0002,0.0,-0.0001,-0.0,0.0007,0.0008,0.0018,0.0021,0.004,0.0038,0.004,0.004,0.0057,0.0058,0.0058,0.005,0.005,0.005,0,0,0,0,0,0,-0.0013,-0.0012,-0.0001,-0.0,0.0006,0.0002,-0.0006,0.0005,0.0012,0.0011,0.0024,0.0027,0.0039,0.0042,0.004,0.0047,0.0049,0.005,0.0042,0.0042,0.0042,0.003,0.004,0,0,0,0,0,-0.0013,-0.002,-0.0008,-0.0008,-0.0007,-0.0002,-0.0003,0.0001,0.0007,0.001,0.0022,0.0031,0.0039,0.0044,0.0049,0.0054,0.0052,0.0055,0.0055,0.0055,0.0047,0.0054,0.0054,0.0059,0.0059,0.0059,0,0,-0.0018,-0.0016,-0.0021,-0.0011,-0.0012,-0.0014,-0.0002,-0.0006,-0.0004,0.0012,0.0018,0.0032,0.0041,0.0045,0.005,0.005,0.0052,0.0055,0.0055,0.0047,0.0055,0.0054,0.0054,0.0059,0.0059,0.0059,0,0,-0.0038,-0.0026,-0.004,-0.0033,-0.0031,-0.0028,-0.0023,-0.0016,-0.001,-0.0,0.0012,0.0031,0.0039,0.0048,0.0052,0.0056,0.0052,0.0057,0.0043,0.0051,0.0051,0.005,0.0041,0.004,0.0054,0.0054,0.0054,0,-0.0041,-0.0046,-0.0043,-0.0047,-0.0041,-0.003,-0.0031,-0.003,-0.0015,-0.0006,0.0,0.0029,0.004,0.0052,0.0047,0.0056,0.005,0.0043,0.005,0.005,0.005,0.004,0.0039,0.0054,0.0054,0.0054,0.0054,0,-0.0067,-0.0065,-0.0073,-0.0072,-0.0067,-0.0069,-0.0057,-0.0051,-0.0037,-0.0026,-0.0004,0.0014,0.0034,0.0039,0.004,0.0045,0.0037,0.0051,0.0049,0.0048,0.0039,0.0038,0.0054,0.0054,0.0054,0.0054,0,0,-0.0068,-0.009,-0.0081,-0.0087,-0.0075,-0.0074,-0.0072,-0.006,-0.005,-0.0035,-0.0017,-0.0002,0.0016,0.0022,0.0037,0.0037,0.0029,0.0034,0.0034,0.0021,0.0027,0.0043,0.0043,0.004,0.004,0.004,0.0018,0,-0.0078,-0.0097,-0.0094,-0.01,-0.011,-0.0091,-0.0083,-0.0071,-0.0056,-0.0039,-0.0018,0.0004,0.0007,0.0023,0.0022,0.0035,0.0026,0.0032,0.0032,0.0032,0.0044,0.0043,0.0062,0.0046,0.0017,0.0017,0.0017,0,-0.0082,-0.0098,-0.0108,-0.0114,-0.0112,-0.0112,-0.0088,-0.0082,-0.006,-0.0041,-0.0021,-0.0001,0.0011,0.0015,0.002,0.0021,0.0013,0.0016,0.0016,0.0032,0.0047,0.0044,0.0045,-0.0049,0.0015,0.0015,0.0015,0,-0.0076,-0.0095,-0.0104,-0.0104,-0.0111,-0.0109,-0.011,-0.0085,-0.0068,-0.0045,-0.0023,-0.0005,0.0019,0.001,0.0023,0.0014,0.0024,0.0021,0.0025,0.0025,0.0041,0.0044,-0.005,0.0011,0.0011,0.0011,0.0011,0,-0.0072,-0.0081,-0.011,-0.0112,-0.0114,-0.012,-0.0103,-0.0094,-0.0073,-0.0037,-0.0028,0.0021,0.0018,0.0033,0.0019,0.0026,0.0026,0.0016,0.0023,0.0039,0.0041,-0.0038,-0.0088,0.001,0.001,0.001,0.001,0,-0.0058,-0.0075,-0.0093,-0.011,-0.0113,-0.0115,-0.0106,-0.0087,-0.0074,-0.003,-0.0019,0.0032,0.0076,0.0067,0.0073,0.004,0.0002,0.0036,0.0047,0.0057,-0.0038,-0.0088,-0.0156,-0.0158,0.0019,0.002,0.002,0,-0.0056,-0.0067,-0.0081,-0.008,-0.0089,-0.0095,-0.0078,-0.0078,-0.0051,0.0002,0.0035,0.0081,0.0173,0.0175,0.0135,0.0108,0.0039,0.0064,0.0054,-0.0049,-0.0099,-0.0131,-0.013,0.0064,0.0065,0.0066,0.0066,0,-0.0053,-0.0053,-0.0056,-0.0052,-0.0048,-0.0034,-0.0026,-0.0004,0.0023,0.0072,0.0166,0.0239,0.026,0.0287,0.0228,0.0189,0.0008,0.0073,-0.0031,-0.0075,-0.0118,-0.0113,0.0067,0.007,0.007,0.007,0.0069,0.0069,-0.0039,-0.0037,-0.0029,-0.0018,-0.0,0.0038,0.0077,0.0116,0.0185,0.0318,0.0319,0.0497,0.0425,0.0385,0.0272,0.0055,0.0064,-0.0014,-0.0069,-0.0094,-0.0093,0.0088,0.0105,0.0105,0.0104,0.0104,0.0104,0,-0.0022,-0.0018,-0.0,0.003,0.0082,0.0075,0.0137,0.022,0.0348,0.0504,0.0625,0.073,0.0613,0.0444,0.0134,-0.0056,-0.0114,-0.0167,-0.0228,-0.0218,-0.0058,-0.0053,-0.0072,-0.0072,-0.0072,-0.0072,-0.0072,-0.0071,-0.0021,0.0001,0.0016,0.0103,0.0142,0.0234,0.0288,0.0434,0.0578,0.0856,0.1025,0.1129,0.0979,0.0295,-0.0138,-0.024,-0.0365,-0.0401,-0.0447,-0.0378,-0.0369,-0.036,-0.0369,-0.0453,-0.0453,-0.0565,-0.0567,-0.0568]}],[{"header":{"parameterUnit":"m.s-1","parameterCategory":2,"la1":30.2991,"la2":30.254,"lo1":-89.0895,"lo2":-89.0444,"dy":0.0017,"dx":0.0017,"nx":28,"ny":28,"refTime":"2025-04-09T21:00:00:Z","depth":"2","parameterNumber":2,"parameterNumberName":"U-component_of_CURRENTS"},"data":[0,0,0,0,0,0,0,0,0,0,0,0,0,0,0,0,0,0,0,0,0,0,0,0,0,0,0,0,0,0,0,0,0,0,0,0,0,0,0,0,0,0,0,0,0,0,0,0,0,0,0,0,0,0,0,0,0,0,0.0121,0.012,0,-0.0067,-0.007,-0.0073,-0.01,-0.0097,-0.0094,-0.0091,0.0128,0.0131,0.0134,0,0,0,0,0,0,0,0,0,0,0,0,0,0.0022,0.0026,0.0121,0.012,0.0119,-0.0066,-0.007,-0.0074,-0.01,-0.0097,-0.0093,-0.009,0.0127,0.0131,0.0135,0,0,0,0,0,0,0,0,0,0,0,0,0,-0.0038,0.0027,0.0121,0.0093,0.0089,-0.0065,-0.007,-0.0075,-0.0101,-0.0097,-0.0092,-0.0088,0.0126,0.0131,0.0135,0.0077,0,0,0.0149,0.0151,0,0,0,0,0,0,0,0,-0.0034,-0.0036,0.0098,0.0094,0.009,-0.0044,-0.0024,0.0001,-0.0102,-0.0042,-0.0091,-0.0086,0.0114,0.0119,0.005,0.0087,0.0096,0.015,0.0153,0.0155,0.0156,0,0,0,0,0,0,0,-0.0029,-0.003,0.0034,0.0097,0.0092,-0.0059,-0.006,-0.0025,0.0011,-0.0047,-0.0046,-0.0048,0.0113,0.0045,0.0057,0.01,0.015,0.0154,0.0157,0.0159,0.0277,0.0277,0,0,0,0,0,0,0.0038,-0.0024,0.004,0.0029,0.0052,-0.0058,-0.006,-0.0016,0.0002,0.0009,-0.0052,-0.0049,0.0035,0.0051,0.0065,0.0145,0.0155,0.0159,0.0162,0.0276,0.0277,0.0277,0,0,0,0,0,0,0.0037,0.0047,0.0048,0.0005,-0.0003,-0.0056,-0.001,-0.0021,-0.0044,-0.0004,0.001,-0.0053,0.0039,0.0059,0.0151,0.015,0.0161,0.0165,0.0276,0.0277,0.0277,0.0213,0,0,0,0,0,0,0.0036,0.0049,0.0081,0.0012,0.0002,-0.0005,-0.0013,-0.0028,-0.0048,-0.0045,-0.0001,0.0019,0.0044,0.0143,0.0155,0.0156,0.0169,0.0276,0.0276,0.0277,0.0215,0.0211,0.0208,0,0,0,0,0,0.0034,0.0065,0.0085,0.0092,0.0059,-0.0004,-0.0026,-0.0061,-0.0051,-0.0067,-0.0015,0.002,0.0156,0.0147,0.0161,0.0164,0.0275,0.0276,0.0277,0.0216,0.0212,0.0208,0,0,0,0,0,0,0.0071,0.0065,0.0085,0.0128,0.009,-0.0002,-0.0029,-0.0048,-0.0044,-0.0021,0.0028,0.0051,0.0124,0.0159,0.0148,0.0201,0.0219,0.0223,0.0168,0.0165,0.0161,0.0202,0.0173,0,0,0,0,0,0.0092,0.0095,0.0084,0.0112,0.0104,0.0041,0.0008,-0.0014,-0.0016,-0.0016,0.0039,0.009,0.0117,0.0162,0.0198,0.0233,0.026,0.0244,0.0241,0.0238,0.0281,0.0294,0.0295,0.028,0.028,0.028,0,0,0.01,0.0109,0.0106,0.0114,0.0075,0.0019,0.003,-0.001,-0.0033,0.0018,0.0048,0.009,0.0127,0.0158,0.0194,0.0203,0.0249,0.0239,0.0235,0.0282,0.0295,0.0296,0.0298,0.028,0.028,0.028,0,0,0.0079,0.0148,0.0116,0.0099,0.0069,0.0015,0.0024,-0.0018,0.0002,0.0012,0.005,0.0111,0.0152,0.0181,0.0192,0.0201,0.023,0.0209,0.0228,0.0238,0.0239,0.0241,0.024,0.0243,0.0207,0.0207,0.0207,0,0.008,0.0102,0.0093,0.0067,0.0066,0.0026,-0.0002,-0.0035,-0.0031,0.003,0.0038,0.012,0.0151,0.0195,0.0191,0.0194,0.0208,0.0229,0.0232,0.0235,0.0238,0.0237,0.0241,0.0204,0.0204,0.0205,0.0205,0,0.0039,0.0055,0.0044,0.0001,-0.0025,-0.0039,-0.006,-0.005,-0.0028,-0.002,0.008,0.011,0.0177,0.0168,0.0176,0.0221,0.0224,0.0219,0.0236,0.0235,0.0235,0.0239,0.02,0.0201,0.0202,0.0202,0,0,0.0036,0.0017,0.0009,-0.0001,-0.0024,-0.0071,-0.0067,-0.0053,-0.0022,0.0009,0.0086,0.0117,0.0183,0.0204,0.0231,0.0244,0.024,0.0248,0.0249,0.0239,0.0262,0.0373,0.0388,0.0231,0.0233,0.0234,0.0239,0,0.0013,-0.0022,-0.0031,-0.0097,-0.0099,-0.0095,-0.0092,-0.0081,-0.0033,0.0028,0.0102,0.0162,0.0175,0.0213,0.023,0.0241,0.0259,0.0241,0.0277,0.0278,0.037,0.04,0.0375,0.0389,0.0244,0.0245,0.0245,0,-0.0014,-0.0021,-0.004,-0.0068,-0.0071,-0.0113,-0.0065,-0.0081,0.0007,0.0072,0.0165,0.0216,0.0269,0.0262,0.0299,0.0288,0.0295,0.0294,0.0293,0.0441,0.0401,0.0377,0.0404,0.0254,0.0253,0.0252,0.0252,0,0.0014,-0.0041,-0.0041,-0.0043,-0.0086,-0.0056,-0.0081,-0.0013,0.0025,0.0122,0.0179,0.0249,0.0294,0.0304,0.0332,0.0306,0.0368,0.0311,0.0425,0.043,0.0448,0.0455,0.0362,0.0362,0.0362,0.0362,0.0362,0,0.003,0.001,-0.0019,-0.0014,-0.0008,-0.0036,-0.0017,0.0021,0.0087,0.0163,0.0217,0.0312,0.0311,0.0358,0.035,0.0429,0.0379,0.0469,0.0461,0.0423,0.0428,0.0352,0.035,0.0362,0.0362,0.0362,0.0362,0,0.0058,0.0043,0.0029,0.0014,0.0017,0.0021,0.0004,0.0004,0.0096,0.02,0.0237,0.0347,0.0445,0.0459,0.0483,0.0477,0.0509,0.0556,0.0521,0.0514,0.0545,0.054,0.0648,0.0653,0.0657,0.066,0.0662,0,0.007,0.0082,0.0062,0.0037,0.004,0.0024,0.0013,0.0046,0.0076,0.0253,0.0319,0.0466,0.062,0.0695,0.0714,0.0741,0.0683,0.0704,0.0674,0.0604,0.0584,0.0573,0.0564,0.0626,0.0628,0.063,0.0632,0,0.0103,0.0105,0.0086,0.0093,0.0073,0.0003,0.0026,0.0066,0.0137,0.0262,0.0474,0.062,0.0793,0.0856,0.0918,0.091,0.069,0.0748,0.0677,0.0594,0.0595,0.0572,0.056,0.0647,0.0646,0.0644,0.0644,0.0643,0.0125,0.0129,0.0129,0.0124,0.0076,0.0051,0.0075,0.0111,0.0225,0.0493,0.0584,0.0809,0.0848,0.099,0.097,0.092,0.0948,0.0835,0.0823,0.0811,0.0844,0.0856,0.0961,0.0961,0.0961,0.0961,0.0962,0,0.0125,0.0151,0.0142,0.0131,0.0075,0.0082,0.0111,0.0168,0.0363,0.057,0.0797,0.0819,0.0953,0.0969,0.0947,0.0943,0.0857,0.0878,0.0735,0.0725,0.0714,0.0735,0.0826,0.0825,0.0824,0.0823,0,0,0.0129,0.013,0.0146,0.0137,0.0142,0.0187,0.0242,0.0376,0.0518,0.0685,0.0814,0.1041,0.1018,0.0927,0.0909,0.087,0.0786,0.0848,0.097,0.0799,0.0787,0.072,0.0748,0,0,0,0,0]},{"header":{"parameterUnit":"m.s-1","parameterCategory":2,"la1":30.2991,"la2":30.254,"lo1":-89.0895,"lo2":-89.0444,"dy":0.0017,"dx":0.0017,"nx":28,"ny":28,"refTime":"2025-04-09T21:00:00:Z","depth":"2","parameterNumber":3,"parameterNumberName":"V-component_of_CURRENTS"},"data":[0,0,0,0,0,0,0,0,0,0,0,0,0,0,0,0,0,0,0,0,0,0,0,0,0,0,0,0,0,0,0,0,0,0,0,0,0,0,0,0,0,0,0,0,0,0,0,0,0,0,0,0,0,0,0,0,0,0,-0.0123,-0.0123,0,-0.0106,-0.0107,-0.0107,-0.0122,-0.0122,-0.0122,-0.0122,-0.0107,-0.0106,-0.0106,0,0,0,0,0,0,0,0,0,0,0,0,0,-0.0185,-0.0184,-0.0124,-0.0123,-0.0122,-0.0106,-0.0107,-0.0107,-0.0122,-0.0122,-0.0122,-0.0122,-0.0107,-0.0106,-0.0106,0,0,0,0,0,0,0,0,0,0,0,0,0,-0.0168,-0.0184,-0.0124,-0.0123,-0.0122,-0.0106,-0.0107,-0.0107,-0.0122,-0.0122,-0.0122,-0.0122,-0.0107,-0.0106,-0.0106,-0.0099,0,0,-0.0104,-0.0103,0,0,0,0,0,0,0,0,-0.0169,-0.0166,-0.0124,-0.0123,-0.0122,-0.0111,-0.0122,-0.0103,-0.0122,-0.0128,-0.0122,-0.0122,-0.0104,-0.0104,-0.0109,-0.0099,-0.0098,-0.0104,-0.0103,-0.0103,-0.0103,0,0,0,0,0,0,0,-0.017,-0.0167,-0.0123,-0.0123,-0.0122,-0.0129,-0.0127,-0.0119,-0.0121,-0.0128,-0.0127,-0.0116,-0.0105,-0.011,-0.0109,-0.0098,-0.0104,-0.0103,-0.0103,-0.0102,-0.0086,-0.0086,0,0,0,0,0,0,-0.0159,-0.0168,-0.0123,-0.0122,-0.0139,-0.0127,-0.0125,-0.0119,-0.0121,-0.0119,-0.0116,-0.0116,-0.0111,-0.0109,-0.0108,-0.0095,-0.0103,-0.0102,-0.0102,-0.0086,-0.0086,-0.0086,0,0,0,0,0,0,-0.016,-0.0155,-0.0124,-0.0139,-0.0135,-0.0125,-0.0119,-0.0119,-0.0123,-0.011,-0.011,-0.0119,-0.0111,-0.0109,-0.0101,-0.0094,-0.0102,-0.0101,-0.0086,-0.0086,-0.0086,-0.0071,0,0,0,0,0,0,-0.0162,-0.0156,-0.016,-0.0139,-0.0134,-0.0117,-0.0118,-0.0118,-0.0113,-0.0114,-0.0113,-0.0112,-0.0111,-0.0102,-0.0101,-0.0093,-0.0101,-0.0086,-0.0086,-0.0086,-0.0072,-0.0071,-0.007,0,0,0,0,0,-0.0165,-0.0154,-0.0161,-0.0155,-0.0136,-0.0116,-0.0116,-0.0113,-0.0113,-0.0118,-0.0114,-0.0112,-0.0101,-0.0102,-0.01,-0.0092,-0.0086,-0.0086,-0.0086,-0.0072,-0.0071,-0.007,0,0,0,0,0,0,-0.017,-0.0153,-0.016,-0.0143,-0.0136,-0.0117,-0.0117,-0.0112,-0.0114,-0.0122,-0.0109,-0.0108,-0.0096,-0.0099,-0.01,-0.0089,-0.0094,-0.0093,-0.0084,-0.0083,-0.0082,-0.0099,-0.01,0,0,0,0,0,-0.0176,-0.0177,-0.0155,-0.0148,-0.0143,-0.0134,-0.0129,-0.013,-0.012,-0.0122,-0.0109,-0.0105,-0.0095,-0.0093,-0.0086,-0.0081,-0.0085,-0.0076,-0.0075,-0.0074,-0.0087,-0.0076,-0.0075,-0.0085,-0.0085,-0.0085,0,0,-0.0186,-0.0168,-0.0175,-0.0152,-0.015,-0.0139,-0.0133,-0.013,-0.0125,-0.0119,-0.0108,-0.0098,-0.0091,-0.0083,-0.0079,-0.0085,-0.0074,-0.0074,-0.0073,-0.0087,-0.0075,-0.0074,-0.0073,-0.0085,-0.0085,-0.0085,0,0,-0.0191,-0.0182,-0.0189,-0.0173,-0.0161,-0.0153,-0.0149,-0.0132,-0.0133,-0.0124,-0.0112,-0.0098,-0.0086,-0.0075,-0.0069,-0.006,-0.0065,-0.006,-0.0071,-0.0059,-0.0058,-0.0057,-0.0064,-0.0064,-0.0064,-0.0064,-0.0064,0,-0.0191,-0.0198,-0.0188,-0.0172,-0.0158,-0.0154,-0.0149,-0.0144,-0.0127,-0.0123,-0.0123,-0.0089,-0.0082,-0.006,-0.0065,-0.0056,-0.0062,-0.0073,-0.0058,-0.0057,-0.0056,-0.0063,-0.0063,-0.0063,-0.0063,-0.0063,-0.0064,0,-0.0205,-0.0202,-0.0196,-0.0183,-0.0168,-0.0162,-0.0143,-0.0138,-0.0134,-0.0127,-0.0106,-0.0089,-0.007,-0.0062,-0.0067,-0.0054,-0.0063,-0.0051,-0.0059,-0.0054,-0.0062,-0.0062,-0.0062,-0.0063,-0.0063,-0.0063,0,0,-0.0197,-0.0209,-0.0197,-0.0202,-0.0173,-0.0157,-0.0147,-0.0136,-0.0126,-0.0115,-0.0096,-0.008,-0.0072,-0.0066,-0.0052,-0.0052,-0.0053,-0.0062,-0.0062,-0.0068,-0.0045,-0.0041,-0.0041,-0.0039,-0.0039,-0.0039,-0.0053,0,-0.0206,-0.0198,-0.0193,-0.0183,-0.0183,-0.0162,-0.0145,-0.0133,-0.0124,-0.0104,-0.0091,-0.0068,-0.0071,-0.0058,-0.0058,-0.0047,-0.0054,-0.0052,-0.0052,-0.0052,-0.0047,-0.004,-0.0041,-0.0053,-0.0053,-0.0053,-0.0053,0,-0.0212,-0.0205,-0.0203,-0.0196,-0.0189,-0.0179,-0.0148,-0.0139,-0.0116,-0.0105,-0.0085,-0.0066,-0.0052,-0.0056,-0.0047,-0.0048,-0.0059,-0.0058,-0.0057,-0.0061,-0.0048,-0.0058,-0.0053,-0.0054,-0.0054,-0.0054,-0.0054,0,-0.0215,-0.0205,-0.0208,-0.0197,-0.0182,-0.0178,-0.0176,-0.0149,-0.0138,-0.0108,-0.0091,-0.0064,-0.0044,-0.0048,-0.0043,-0.0051,-0.004,-0.004,-0.0047,-0.0047,-0.0053,-0.0054,-0.0048,-0.0048,-0.0048,-0.0048,-0.0048,0,-0.021,-0.0211,-0.0216,-0.0206,-0.0207,-0.0194,-0.0183,-0.0172,-0.0148,-0.0123,-0.01,-0.0057,-0.0045,-0.0027,-0.004,-0.0039,-0.0032,-0.0056,-0.0048,-0.0049,-0.0049,-0.0054,-0.0055,-0.0049,-0.0048,-0.0048,-0.0048,0,-0.0215,-0.0215,-0.0221,-0.0212,-0.0214,-0.0215,-0.0204,-0.0183,-0.0168,-0.0131,-0.0119,-0.0061,-0.0018,-0.0008,0.0002,-0.0027,-0.0028,-0.0032,-0.0043,-0.0036,-0.0053,-0.0053,-0.0054,-0.0054,-0.0054,-0.0054,-0.0054,0,-0.0225,-0.0231,-0.0225,-0.0215,-0.0217,-0.0216,-0.0204,-0.0197,-0.0168,-0.0118,-0.0091,-0.004,0.0047,0.006,0.0028,0.0014,0.0003,-0.0035,-0.0049,-0.0061,-0.0052,-0.0052,-0.0052,-0.0057,-0.0057,-0.0057,-0.0057,0,-0.0236,-0.0233,-0.0217,-0.021,-0.02,-0.0183,-0.0176,-0.0155,-0.0121,-0.0064,0.0023,0.0092,0.0104,0.0127,0.0086,0.0056,-0.0032,-0.0036,-0.0031,-0.0051,-0.0063,-0.0055,-0.0054,-0.0056,-0.0056,-0.0057,-0.0057,-0.0057,-0.0237,-0.0234,-0.0207,-0.019,-0.0168,-0.013,-0.0094,-0.0041,0.0034,0.0184,0.017,0.0316,0.0223,0.0254,0.013,-0.0014,0.0003,-0.0051,-0.0052,-0.0052,-0.0046,-0.0056,-0.0049,-0.0049,-0.0049,-0.0049,-0.0049,0,-0.0221,-0.0207,-0.0192,-0.0151,-0.0097,-0.0108,-0.004,0.0058,0.02,0.0349,0.0485,0.0458,0.0433,0.031,0.0096,-0.0041,-0.0065,-0.0087,-0.0095,-0.0093,-0.0092,-0.0089,-0.0103,-0.0104,-0.0104,-0.0105,0,0,-0.0203,-0.0178,-0.0169,-0.0079,-0.0048,0.0045,0.01,0.0272,0.0417,0.0635,0.0739,0.0838,0.058,0.0424,0.0206,0.0056,0.0024,0.0029,0.009,0.011,0.0113,-0.0055,-0.0046,0,0,0,0,0]}],[{"header":{"parameterUnit":"m.s-1","parameterCategory":2,"la1":30.2991,"la2":30.254,"lo1":-89.0895,"lo2":-89.0444,"dy":0.0017,"dx":0.0017,"nx":28,"ny":28,"refTime":"2025-04-09T21:00:00:Z","depth":"4","parameterNumber":2,"parameterNumberName":"U-component_of_CURRENTS"},"data":[0,0,0,0,0,0,0,0,0,0,0,0,0,0,0,0,0,0,0,0,0,0,0,0,0,0,0,0,0,0,0,0,0,0,0,0,0,0,0,0,0,0,0,0,0,0,0,0,0,0,0,0,0,0,0,0,0,0,-0.0153,-0.0153,0,-0.0128,-0.0128,-0.0128,-0.0122,-0.0122,-0.0123,-0.0123,-0.0166,-0.0167,-0.0168,0,0,0,0,0,0,0,0,0,0,0,0,0,-0.0174,-0.0174,-0.0153,-0.0153,-0.0152,-0.0128,-0.0128,-0.0128,-0.0122,-0.0122,-0.0123,-0.0123,-0.0166,-0.0167,-0.0168,0,0,0,0,0,0,0,0,0,0,0,0,0,-0.0159,-0.0174,-0.0153,-0.0146,-0.0146,-0.0128,-0.0128,-0.0128,-0.0122,-0.0122,-0.0123,-0.0123,-0.0166,-0.0167,-0.0169,-0.0173,0,0,-0.0173,-0.0174,0,0,0,0,0,0,0,0,-0.016,-0.0158,-0.0148,-0.0147,-0.0146,-0.0129,-0.0152,-0.0146,-0.0122,-0.0131,-0.0123,-0.0123,-0.016,-0.0162,-0.0156,-0.0175,-0.0177,-0.0173,-0.0174,-0.0175,-0.0175,0,0,0,0,0,0,0,-0.0161,-0.0159,-0.0143,-0.0147,-0.0146,-0.0138,-0.0136,-0.015,-0.0146,-0.013,-0.013,-0.0127,-0.016,-0.0154,-0.0157,-0.0178,-0.0173,-0.0175,-0.0176,-0.0176,-0.0207,-0.0207,0,0,0,0,0,0,-0.0165,-0.016,-0.0144,-0.0142,-0.0154,-0.0137,-0.0135,-0.0134,-0.0144,-0.0145,-0.0127,-0.0127,-0.0151,-0.0155,-0.0159,-0.0178,-0.0175,-0.0176,-0.0177,-0.0207,-0.0207,-0.0207,0,0,0,0,0,0,-0.0165,-0.0163,-0.0145,-0.0151,-0.0148,-0.0137,-0.0135,-0.0133,-0.0126,-0.0141,-0.0143,-0.0122,-0.0152,-0.0156,-0.0176,-0.018,-0.0177,-0.0178,-0.0208,-0.0207,-0.0207,-0.021,0,0,0,0,0,0,-0.0166,-0.0164,-0.0165,-0.0151,-0.0148,-0.0135,-0.0135,-0.0133,-0.0124,-0.0124,-0.0137,-0.0141,-0.0152,-0.0173,-0.0177,-0.0182,-0.0179,-0.0208,-0.0207,-0.0207,-0.021,-0.021,-0.021,0,0,0,0,0,-0.0167,-0.0167,-0.0165,-0.0163,-0.0149,-0.0135,-0.0132,-0.0125,-0.0124,-0.012,-0.0134,-0.0141,-0.0175,-0.0175,-0.0179,-0.0184,-0.0208,-0.0208,-0.0207,-0.021,-0.021,-0.021,0,0,0,0,0,0,-0.0179,-0.0166,-0.0164,-0.0161,-0.0149,-0.0134,-0.0131,-0.0124,-0.0128,-0.0133,-0.0145,-0.015,-0.0166,-0.0173,-0.0173,-0.0191,-0.019,-0.0191,-0.0191,-0.0191,-0.0191,-0.019,-0.0181,0,0,0,0,0,-0.0181,-0.0177,-0.0164,-0.0161,-0.0156,-0.0143,-0.0136,-0.013,-0.0131,-0.0132,-0.0142,-0.0155,-0.0168,-0.0178,-0.0189,-0.0204,-0.0187,-0.0207,-0.0207,-0.0207,-0.0209,-0.0185,-0.0183,-0.0207,-0.0207,-0.0207,0,0,-0.0182,-0.0177,-0.0173,-0.0162,-0.0154,-0.0147,-0.0139,-0.013,-0.0126,-0.0138,-0.0145,-0.0156,-0.017,-0.0185,-0.0193,-0.0194,-0.0189,-0.0207,-0.0207,-0.0209,-0.0184,-0.0182,-0.018,-0.0207,-0.0207,-0.0207,0,0,-0.0181,-0.018,-0.0175,-0.0168,-0.0157,-0.015,-0.0147,-0.0135,-0.0131,-0.0137,-0.0145,-0.0157,-0.0177,-0.0185,-0.0193,-0.0198,-0.0187,-0.0204,-0.0208,-0.0185,-0.0183,-0.0181,-0.0142,-0.0136,-0.0206,-0.0206,-0.0206,0,-0.0188,-0.0179,-0.0171,-0.0167,-0.0162,-0.0152,-0.0146,-0.014,-0.0137,-0.0139,-0.0142,-0.0162,-0.0174,-0.0188,-0.0194,-0.0198,-0.018,-0.0209,-0.0185,-0.0182,-0.018,-0.0141,-0.0135,-0.0207,-0.0207,-0.0207,-0.0207,0,-0.0178,-0.0176,-0.0174,-0.0167,-0.0162,-0.0155,-0.0147,-0.0149,-0.0148,-0.0142,-0.0151,-0.0163,-0.0176,-0.018,-0.0194,-0.019,-0.018,-0.0185,-0.0184,-0.0178,-0.0137,-0.013,-0.0207,-0.0207,-0.0207,-0.0207,0,0,-0.0186,-0.017,-0.0172,-0.0168,-0.0162,-0.0155,-0.0158,-0.0154,-0.0154,-0.0155,-0.0149,-0.0173,-0.0177,-0.0185,-0.0196,-0.0183,-0.015,-0.0184,-0.0183,-0.0144,-0.0087,-0.0043,-0.0031,-0.0154,-0.0153,-0.0153,-0.0059,0,-0.0184,-0.0172,-0.0169,-0.0164,-0.0156,-0.0159,-0.016,-0.0158,-0.0158,-0.0152,-0.0155,-0.016,-0.0178,-0.0188,-0.0177,-0.0155,-0.0136,-0.0174,-0.01,-0.0098,-0.0059,-0.0023,-0.015,-0.0054,-0.0053,-0.0052,-0.0051,0,-0.0176,-0.017,-0.0161,-0.0158,-0.0157,-0.0158,-0.0162,-0.0158,-0.0155,-0.0156,-0.0161,-0.0163,-0.0154,-0.0165,-0.0118,-0.0143,-0.012,-0.0099,-0.0094,-0.0049,-0.0042,-0.0066,-0.0039,-0.004,-0.0041,-0.0041,-0.0042,0,-0.0175,-0.0168,-0.0161,-0.0158,-0.0154,-0.016,-0.016,-0.0161,-0.0159,-0.0156,-0.0156,-0.0144,-0.0133,-0.0105,-0.0063,-0.0096,0.0014,-0.0021,0.0044,0.0049,-0.002,-0.0024,0.0016,0.0015,0.0015,0.0015,0.0015,0,-0.0173,-0.0168,-0.016,-0.0158,-0.0154,-0.0153,-0.015,-0.0157,-0.0154,-0.014,-0.0156,-0.0143,-0.0121,-0.0065,-0.0036,0.0048,0.0041,0.0059,0.0078,-0.0021,-0.0026,-0.0014,-0.0019,0.0018,0.0018,0.0017,0.0016,0,-0.0169,-0.0163,-0.0156,-0.0155,-0.0152,-0.0149,-0.0144,-0.0136,-0.0146,-0.0127,-0.013,-0.0126,-0.0061,-0.0007,0.0065,0.0092,0.0163,0.0191,0.0115,0.0126,0.017,0.0164,0.0259,0.0262,0.0264,0.0265,0.0267,0,-0.0163,-0.0157,-0.0154,-0.0143,-0.0143,-0.0133,-0.0121,-0.013,-0.0124,-0.0111,-0.0099,-0.0054,-0.0036,0.012,0.0154,0.0253,0.0244,0.0288,0.0187,0.0187,0.0196,0.0187,0.0178,0.027,0.0271,0.0271,0.0272,0,-0.0151,-0.0153,-0.0149,-0.0133,-0.012,-0.0097,-0.0087,-0.0089,-0.0086,-0.0095,-0.0056,-0.0009,0.0076,0.0141,0.0238,0.029,0.0264,0.0308,0.0302,0.0207,0.0201,0.0206,0.0195,0.0279,0.0278,0.0277,0.0277,0,-0.0145,-0.0135,-0.0129,-0.0114,-0.0091,-0.0061,-0.0062,-0.0041,-0.0037,-0.0039,-0.0015,0.0044,0.0072,0.0164,0.0251,0.0322,0.0294,0.0287,0.0281,0.0274,0.0238,0.0231,0.0349,0,0,0,0,0,-0.0133,-0.0112,-0.01,-0.0077,-0.0056,-0.0043,-0.0033,-0.0037,-0.0045,-0.0005,-0.0013,0.0064,0.0164,0.0189,0.0267,0.0261,0.0301,0.0352,0.0289,0.0318,0.031,0.0268,0,0,0,0,0,0,-0.0118,-0.0104,-0.0096,-0.005,-0.0028,0.0003,0.0009,0.0003,0.0016,0.001,0.0061,0.008,0.0174,0.013,0.0269,0.0286,0.0256,0.0392,0.0394,0.0323,0.0315,0.0309,0.0263,0,0,0,0,0]},{"header":{"parameterUnit":"m.s-1","parameterCategory":2,"la1":30.2991,"la2":30.254,"lo1":-89.0895,"lo2":-89.0444,"dy":0.0017,"dx":0.0017,"nx":28,"ny":28,"refTime":"2025-04-09T21:00:00:Z","depth":"4","parameterNumber":3,"parameterNumberName":"V-component_of_CURRENTS"},"data":[0,0,0,0,0,0,0,0,0,0,0,0,0,0,0,0,0,0,0,0,0,0,0,0,0,0,0,0,0,0,0,0,0,0,0,0,0,0,0,0,0,0,0,0,0,0,0,0,0,0,0,0,0,0,0,0,0,0,0.0115,0.0115,0,0.0093,0.0093,0.0092,0.0086,0.0087,0.0087,0.0087,0.0054,0.0053,0.0052,0,0,0,0,0,0,0,0,0,0,0,0,0,0.0116,0.0117,0.0115,0.0115,0.0115,0.0093,0.0093,0.0092,0.0086,0.0087,0.0087,0.0087,0.0055,0.0053,0.0052,0,0,0,0,0,0,0,0,0,0,0,0,0,0.0106,0.0117,0.0115,0.011,0.0109,0.0093,0.0093,0.0092,0.0086,0.0087,0.0087,0.0087,0.0055,0.0054,0.0052,0.0035,0,0,0.0047,0.0046,0,0,0,0,0,0,0,0,0.0107,0.0106,0.0111,0.011,0.011,0.0094,0.0081,0.0073,0.0086,0.0094,0.0087,0.0088,0.0067,0.0064,0.0058,0.0034,0.0032,0.0047,0.0046,0.0045,0.0045,0,0,0,0,0,0,0,0.0108,0.0107,0.0106,0.0111,0.011,0.0096,0.0095,0.0079,0.0078,0.0094,0.0093,0.0092,0.0066,0.006,0.0057,0.0032,0.0047,0.0046,0.0045,0.0044,-0.0,-0.0,0,0,0,0,0,0,0.0114,0.0108,0.0106,0.0105,0.011,0.0096,0.0095,0.0098,0.0078,0.0076,0.0092,0.0092,0.0062,0.0059,0.0056,0.0047,0.0045,0.0044,0.0043,0.0,-0.0,-0.0,0,0,0,0,0,0,0.0114,0.0114,0.0107,0.0106,0.0105,0.0096,0.0099,0.0097,0.0089,0.0077,0.0075,0.0085,0.0063,0.0059,0.0045,0.0045,0.0043,0.0042,0.0,0.0,-0.0,0.002,0,0,0,0,0,0,0.0114,0.0114,0.0117,0.0107,0.0105,0.0101,0.0098,0.0096,0.0088,0.0088,0.0071,0.0068,0.0063,0.0048,0.0044,0.0043,0.004,0.0001,0.0,-0.0,0.002,0.0021,0.0021,0,0,0,0,0,0.0114,0.0116,0.0117,0.0117,0.0109,0.0101,0.0099,0.0093,0.0087,0.0086,0.0075,0.0069,0.0042,0.0046,0.0041,0.004,0.0001,0.0,-0.0,0.0019,0.002,0.0021,0,0,0,0,0,0,0.0117,0.0115,0.0116,0.0117,0.0113,0.0101,0.0095,0.009,0.0079,0.0074,0.0065,0.0061,0.0048,0.0039,0.0044,0.0026,0.0021,0.0019,0.0037,0.0038,0.0039,0.0053,0.0039,0,0,0,0,0,0.0119,0.0119,0.0116,0.0116,0.0113,0.0103,0.0097,0.0092,0.0082,0.0077,0.0068,0.0055,0.0042,0.0037,0.0023,0.0013,0.001,0.0008,0.0009,0.001,0.0018,0.0004,0.0005,-0.0002,-0.0002,-0.0002,0,0,0.0122,0.0118,0.012,0.0116,0.0109,0.01,0.01,0.0089,0.0084,0.0074,0.0064,0.0054,0.0038,0.0029,0.0023,0.0023,0.0012,0.0009,0.001,0.0018,0.0004,0.0005,0.0006,-0.0002,-0.0002,-0.0002,0,0,0.0114,0.0121,0.0113,0.011,0.0099,0.0095,0.0092,0.0081,0.0081,0.0071,0.0062,0.0055,0.0036,0.0031,0.0023,0.0018,0.0014,0.0012,0.0032,0.0018,0.0019,0.0019,0.0028,0.0029,0.0016,0.0016,0.0016,0,0.0113,0.0108,0.011,0.0098,0.0095,0.0092,0.0081,0.0079,0.0068,0.0073,0.007,0.0053,0.0037,0.0032,0.0034,0.002,0.0021,0.0031,0.002,0.0021,0.0021,0.003,0.0031,0.0017,0.0017,0.0017,0.0017,0,0.01,0.0095,0.0089,0.0078,0.0074,0.0066,0.0065,0.0066,0.0066,0.007,0.007,0.0058,0.0055,0.0045,0.0039,0.0035,0.0039,0.002,0.0021,0.0023,0.0032,0.0033,0.0019,0.0018,0.0018,0.0018,0,0,0.0096,0.0084,0.008,0.0076,0.0064,0.0061,0.0057,0.0062,0.0073,0.007,0.0087,0.0067,0.0077,0.007,0.0062,0.0054,0.0057,0.0045,0.0044,0.0061,0.0048,0.0029,0.0029,0.0038,0.0037,0.0037,0.0058,0,0.0083,0.0063,0.006,0.0047,0.0039,0.0044,0.0047,0.0053,0.0066,0.0086,0.0087,0.0097,0.0082,0.009,0.0079,0.0064,0.0058,0.0055,0.0038,0.0038,0.0026,0.0028,0.0037,0.0058,0.0058,0.0058,0.0059,0,0.0068,0.0057,0.004,0.0042,0.004,0.0034,0.0051,0.0056,0.0084,0.01,0.0117,0.0129,0.0135,0.0115,0.0098,0.0099,0.0078,0.0062,0.0062,0.0039,0.002,0.0051,0.006,0.006,0.006,0.006,0.0059,0,0.006,0.0047,0.0036,0.0034,0.0031,0.0032,0.0037,0.0058,0.0083,0.0118,0.0148,0.0153,0.0168,0.014,0.0117,0.0111,0.0094,0.0077,0.0042,0.0042,0.0044,0.0043,0.0055,0.0055,0.0055,0.0055,0.0055,0,0.0047,0.0041,0.0034,0.0026,0.0027,0.0029,0.0044,0.0059,0.0101,0.0149,0.016,0.0192,0.0173,0.0169,0.0133,0.0097,0.0105,0.0053,0.0042,0.0054,0.0053,0.0046,0.0045,0.0056,0.0056,0.0056,0.0055,0,0.0036,0.0031,0.0021,0.0018,0.0019,0.0019,0.0048,0.0073,0.0112,0.0177,0.0198,0.0229,0.0224,0.0199,0.016,0.0121,0.0082,0.006,0.0097,0.0087,0.0041,0.004,0.0039,0.0039,0.0038,0.0038,0.0038,0,0.0028,0.0019,0.0013,0.0009,0.0004,0.0012,0.0026,0.0068,0.0115,0.02,0.0239,0.0259,0.0273,0.0208,0.0163,0.0102,0.0077,0.0064,0.0035,0.0048,0.0038,0.0038,0.0038,0.0037,0.0037,0.0037,0.0036,0,0.0012,0.0009,0.0001,-0.0005,-0.0,0.0026,0.0061,0.01,0.0179,0.0215,0.0278,0.0271,0.0262,0.0208,0.016,0.0108,0.0078,0.0058,0.0059,0.0032,0.0045,0.0035,0.0036,0.0035,0.0035,0.0035,0.0035,0,0.0,-0.0004,-0.0013,-0.0012,-0.0002,0.0048,0.0063,0.0123,0.0172,0.0281,0.029,0.029,0.0292,0.0211,0.0164,0.0117,0.0098,0.007,0.007,0.0071,0.0061,0.0081,0.0079,0,0,0,0,0,-0.0007,-0.0005,-0.0013,-0.0002,0.0014,0.0043,0.0098,0.0127,0.0207,0.0253,0.0282,0.0276,0.0229,0.0197,0.0146,0.0143,0.0082,0.0079,0.0047,0.0026,0.0027,0.0007,0,0,0,0,0,0,-0.0014,-0.002,-0.0014,0.0014,0.0039,0.0081,0.0129,0.0182,0.0208,0.0268,0.023,0.0252,0.0185,0.0262,0.0143,0.0131,0.01,0.0063,0.0061,0.0024,0.0026,0.0028,0.0007,0,0,0,0,0]}]]